Regional Weather Roundup
Issued by NWS

Home | Current Version | Previous Version | Text Only | Print | Product List | Glossary On
Versions: 1 2 3 4 5 6 7 8 9 10 11 12 13 14 15 16 17 18 19 20 21 22 23 24 25 26 27 28 29 30 31 32 33 34 35 36 37 38 39 40 41 42 43 44 45 46 47 48 49 50
000
ASUS43 KLSX 261007
RWRMO

WEATHER SUMMARY FOR MISSOURI
NATIONAL WEATHER SERVICE SPRINGFIELD MO
500 AM CDT MON SEP 26 2016

NOTE: "FAIR" INDICATES FEW OR NO CLOUDS BELOW 12,000 FEET WITH NO
       SIGNIFICANT WEATHER AND/OR OBSTRUCTIONS TO VISIBILITY.
       CURRENT SKY AND/OR WEATHER CONDITIONS ARE NOT AVAILABLE FOR
       CHILLICOTHE AND FARMINGTON.

MOZ001>031-035>038-043-044-053-054-261100-
...NORTHERN AND WESTERN MISSOURI...

CITY           SKY/WX    TMP DP  RH WIND       PRES   REMARKS
KANSAS CTY INT CLEAR     52  46  80 NW8       30.24R
KANSAS C DTWN  CLEAR     55  49  80 NW5       30.23S
LEE`S SUMMIT   CLEAR     55  49  80 NW7       30.23S
ST JOSEPH      CLEAR     48  45  89 CALM      30.24R
CHILLICOTHE      N/A     51  47  86 CALM      30.22R
KIRKSVILLE     CLEAR     50  45  83 W7        30.18R

$$
MOZ066>068-077>081-088>096-101>105-261100-
...SOUTHWEST MISSOURI...

CITY           SKY/WX    TMP DP  RH WIND       PRES   REMARKS
SPRINGFIELD    MOCLDY    59  56  89 N6        30.19S
JOPLIN         CLOUDY    59  58  96 CALM        N/A  FOG
BRANSON        LGT RAIN  57  57 100 CALM      30.20S

$$
MOZ032>034-039>042-045>050-055>058-069>072-261100-
...CENTRAL MISSOURI...

CITY           SKY/WX    TMP DP  RH WIND       PRES   REMARKS
COLUMBIA       CLOUDY    60  58  92 W7        30.17R
JEFFERSON CITY CLOUDY    60  58  92 NW5       30.17R
ROLLA          CLOUDY    58  56  93 W3        30.17R
SEDALIA        PTCLDY    59  53  80 NW7       30.21R
WHITEMAN AFB   PTCLDY    56  56  98 NW6       30.20R
OSAGE BEACH    CLOUDY    59  58  96 W3        30.19R

$$
MOZ051-052-059>065-261100-
...EAST CENTRAL MISSOURI...

CITY           SKY/WX    TMP DP  RH WIND       PRES   REMARKS
ST LOUIS INTL  CLOUDY    61  57  87 W7        30.12S
SPIRIT OF STL  CLOUDY    60  58  92 W6        30.12S
ST CHARLES     CLOUDY    60  59  96 SW5       30.11R

$$
MOZ072>076-082>087-097>100-106>115-261100-
...SOUTH CENTRAL AND SOUTHEAST MISSOURI...

CITY           SKY/WX    TMP DP  RH WIND       PRES   REMARKS
CAPE GIRARDEAU CLOUDY    65  56  72 N13       30.10R
FARMINGTON     RAIN      58  56  93 NW7       30.14F
WEST PLAINS    LGT RAIN  59  54  83 N9        30.18R

$$


USA.gov is the U.S. government's official web portal to all federal, state and local government web resources and services.